Tracking 27419 objects as of 10-Jun-2023
HD Live streaming from Space Station
objects crossing your sky now

COSMOS 2133

Track COSMOS 2133 now!
COSMOS 2133 is classified as:


NORAD ID: 21111
Int'l Code: 1991-010A
Perigee: 35,754.6 km
Apogee: 35,827.4 km
Inclination: 14.0 °
Period: 1,436.0 minutes
Semi major axis: 42162 km
RCS: 12.1 m2 (large)
Launch date: February 14, 1991
Source: Commonwealth of Independent States (former USSR) (CIS)
Launch site: TYURATAM MISSILE AND SPACE COMPLEX (TTMTR)
Your satellite tracking list
Your tracking list is empty




NASA's NSSDC Master Catalog

Two Line Element Set (TLE):
1 21111U 91010A   23160.76375369 -.00000084  00000-0  00000-0 0  9998
2 21111  13.9836 350.7183 0008631 131.9459 121.2895  1.00281503118373
Source of the keplerian elements: AFSPC